{"data":{"norad_id":56108,"epoch":"2026-05-25T04:48:47.278944Z","epoch_age_seconds":57474,"freshness":"FRESH","line1":"1 56108U 23046R   26145.20054721  .00002631  00000+0  10508-3 0  9992","line2":"2 56108  43.0006  89.3879 0000923 249.3137 110.7616 15.27584410173732","mean_motion":15.2758441,"eccentricity":9.23e-5,"inclination_deg":43.0006,"raan_deg":89.3879,"arg_perigee_deg":249.3137,"mean_anomaly_deg":110.7616,"bstar":0.00010508,"rev_number":17373,"period_min":94.266476573952,"perigee_km":482.4026046871,"apogee_km":483.66917720277,"semimajor_km":6861.1728909449,"source":"CELESTRAK","updated_at":"2026-05-25T13:38:17.955811Z"}}